Location: Riverside Cemetery
(38.3047°N, 99.7773°W)
Time: 16:17:00
(UTC+00:00)

ARIANE 5 R/B - Pass Details

Date: 19 September 2020
Orbit: 748 x 795 km, 98.6° (Epoch: 21 October)

Event Time Altitude Azimuth Distance (km) Brightness Sun altitude
Rises 10:17:46 0° 3° (N) 3,252 6.1 -25.0°
Reaches altitude 10° 10:20:17 10° 354° (N) 2,314 5.2 -24.6°
Enters shadow 10:23:29 29° 320° (NW) 1,391 3.6 -24.0°
